Home > Weather > Mechelen > Past weeks

Flag for Belgium Weather for the Past 2 Weeks in Mechelen, Belgium

Now
50 °F

Passing clouds.


Feels Like: 45 °F
Forecast: 37 / 57 °F
Wind: 14 mph from North

Location: Brussels National Airport

Current Time: Apr 30, 2016 at 6:59:55 PM

Latest Report: Apr 30, 2016 at 6:20 PM


Visibility: N/A

Pressure: 30.15 "Hg

Humidity: 67%

Dew Point: 39 °F

Location of MechelenLocation

Historic Weather in Mechelen — Graph

°F

Mechelen Temperature Yesterday

Maximum temperature yesterday: 48 °F (at 3:50 PM)
Minimum temperature yesterday: 39 °F (at 12:20 AM)
Average temperature yesterday: 44 °F

High & Low Weather Summary for the Past Weeks

 TemperatureHumidityPressure
High68 °F (Apr 21, 4:50 PM)100% (Apr 20, 5:50 AM)30.48 "Hg (Apr 20, 5:50 AM)
Low32 °F (Apr 28, 2:20 AM)33% (Apr 20, 2:50 PM)29.47 "Hg (Apr 16, 1:50 AM)
Average45 °F73%29.98 "Hg
* Reported Apr 15 5:20 PM — Apr 30 5:50 PM, Mechelen, Weather by CustomWeather, © 2016

Note: Actual official high and low records may vary slightly from our data, if they occured in-between our weather recording intervals... More about our weather records

Advertising

Mechelen Weather History for the Previous 24 Hours

Scroll right to see more
 ConditionsComfort  
Time TempWeatherWind HumidityBarometerVisibility
5:50 PM
Sat, Apr 30
50 °FPassing clouds.14 mph62%30.12 "HgN/A
5:20 PM50 °FPassing clouds.15 mph67%30.12 "HgN/A
4:50 PM50 °FPassing clouds.13 mph62%30.12 "HgN/A
4:20 PM50 °FScattered clouds.13 mph62%30.12 "HgN/A
3:50 PM50 °FScattered clouds.9 mph62%30.09 "HgN/A
3:20 PM50 °FScattered clouds.8 mph62%30.09 "HgN/A
2:50 PM52 °FScattered clouds.6 mph58%30.09 "HgN/A
2:20 PM50 °FScattered clouds.10 mph62%30.09 "HgN/A
1:50 PM50 °FScattered clouds.10 mph58%30.09 "HgN/A
1:20 PM50 °FScattered clouds.7 mph62%30.09 "HgN/A
12:50 PM48 °FSprinkles. Scattered clouds.1 mph71%30.09 "HgN/A
12:20 PM48 °FScattered clouds.2 mph71%30.09 "HgN/A
11:50 AM48 °FScattered clouds.2 mph71%30.09 "HgN/A
11:20 AM48 °FScattered clouds.3 mph71%30.09 "HgN/A
10:50 AM48 °FScattered clouds.2 mph76%30.07 "HgN/A
10:20 AM46 °FPartly sunny.3 mph82%30.07 "HgN/A
9:50 AM46 °FBroken clouds.3 mph76%30.07 "HgN/A
8:50 AM45 °FPartly sunny.3 mph87%30.07 "HgN/A
8:20 AM43 °FPartly sunny.3 mph93%30.04 "HgN/A
7:50 AM43 °FPartly sunny.3 mph93%30.04 "HgN/A
7:20 AM43 °FLight rain. Partly sunny.3 mph93%30.04 "HgN/A
6:50 AM43 °FPassing clouds.3 mph93%30.01 "HgN/A
6:20 AM41 °FPassing clouds.5 mph100%30.01 "HgN/A
5:50 AM41 °FPassing clouds.5 mph100%30.01 "HgN/A
4:50 AM41 °FPassing clouds.6 mph100%30.01 "HgN/A
4:20 AM41 °FPassing clouds.5 mph100%30.01 "HgN/A
3:50 AM41 °FClear.6 mph100%30.01 "Hg10 mi
3:20 AM43 °FPassing clouds.6 mph93%29.98 "HgN/A
2:50 AM43 °FPassing clouds.6 mph93%29.98 "HgN/A
2:20 AM43 °FLight rain. Passing clouds.5 mph93%29.98 "HgN/A
1:50 AM43 °FLight rain. Passing clouds.5 mph93%29.98 "HgN/A
1:20 AM43 °FLight rain. Passing clouds.6 mph93%29.98 "HgN/A
12:50 AM43 °FLight rain. Partly cloudy.6 mph93%29.98 "HgN/A
12:20 AM45 °FLight rain. Passing clouds.8 mph81%29.98 "HgN/A
11:50 PM
Fri, Apr 29
45 °FLight rain. Passing clouds.8 mph81%29.98 "HgN/A
11:20 PM45 °FLight rain. Passing clouds.6 mph87%29.98 "HgN/A
10:50 PM46 °FLight rain. Passing clouds.8 mph76%29.98 "HgN/A
10:20 PM46 °FClear.8 mph76%29.98 "Hg10 mi
9:50 PM46 °FPassing clouds.8 mph76%29.95 "HgN/A
9:20 PM46 °FPassing clouds.8 mph82%29.95 "HgN/A
8:50 PM46 °FPassing clouds.6 mph82%29.95 "HgN/A
8:20 PM46 °FPassing clouds.6 mph82%29.95 "HgN/A
7:50 PM48 °FScattered clouds.9 mph76%29.95 "HgN/A
7:20 PM48 °FPartly sunny.10 mph76%29.95 "HgN/A
6:50 PM48 °FScattered clouds.10 mph82%29.95 "HgN/A
6:20 PM48 °FScattered clouds.10 mph76%29.95 "HgN/A
Weather by CustomWeather, © 2016

See weather overviewHow to use our weather pages